• In Netherlands
  • List of Countries
  • For 7 days
  • Water Temperature
  • Satellite Maps
  • Weather Map
  • Weather Widgets
  • user-avatar
    Login

    Hourly Weather Khulna

    Today, 23 September, Saturday

    Time Temperature Precipitation Wind Pressure Humidity
    00:00 +29°C° 0 mm 1 mps 754 mmHg 89%
    01:00 +29°C° 0 mm 1 mps 754 mmHg 90%
    02:00 +29°C° 0 mm 1 mps 754 mmHg 91%
    03:00 +28°C° 0 mm 1 mps 754 mmHg 92%
    04:00 +28°C° 0 mm 1 mps 754 mmHg 92%
    05:00 +28°C° 0 mm 1 mps 754 mmHg 93%
    06:00 +28°C° 0 mm 1 mps 755 mmHg 93%
    07:00 +30°C° 0 mm 1 mps 755 mmHg 87%
    08:00 +31°C° 0 mm 1 mps 755 mmHg 80%
    09:00 +32°C° 0 mm 2 mps 755 mmHg 73%
    10:00 +35°C° 0 mm 2 mps 755 mmHg 68%
    11:00 +36°C° 0 mm 2 mps 755 mmHg 63%
    12:00 +35°C° 0 mm 1 mps 755 mmHg 61%
    13:00 +35°C° 0 mm 1 mps 755 mmHg 59%
    14:00 +36°C° 0 mm 1 mps 754 mmHg 57%
    15:00 +36°C° 0 mm 1 mps 753 mmHg 56%
    16:00 +35°C° 0 mm 1 mps 753 mmHg 60%
    17:00 +34°C° 0 mm 1 mps 753 mmHg 64%
    18:00 +33°C° 0 mm 1 mps 753 mmHg 68%
    19:00 +32°C° 0 mm 1 mps 753 mmHg 71%
    20:00 +32°C° 0 mm 2 mps 754 mmHg 74%
    21:00 +31°C° 0 mm 2 mps 754 mmHg 77%
    22:00 +31°C° 0 mm 2 mps 754 mmHg 79%
    23:00 +30°C° 0 mm 2 mps 754 mmHg 81%

    Tomorrow, 24 September, Sunday

    Time Temperature Precipitation Wind Pressure Humidity
    00:00 +30°C° 0 mm 3 mps 754 mmHg 83%
    01:00 +30°C° 0 mm 2 mps 754 mmHg 84%
    02:00 +29°C° 0 mm 2 mps 754 mmHg 84%
    03:00 +29°C° 0 mm 2 mps 753 mmHg 85%
    04:00 +29°C° 0 mm 2 mps 753 mmHg 85%
    05:00 +29°C° 0 mm 2 mps 754 mmHg 86%
    06:00 +29°C° 0 mm 2 mps 754 mmHg 87%
    07:00 +30°C° 0 mm 2 mps 754 mmHg 83%
    08:00 +31°C° 0 mm 2 mps 755 mmHg 79%
    09:00 +32°C° 0 mm 2 mps 755 mmHg 75%
    10:00 +33°C° 0 mm 1 mps 755 mmHg 71%
    11:00 +34°C° 0 mm 1 mps 754 mmHg 66%
    12:00 +35°C° 0 mm 1 mps 754 mmHg 62%
    13:00 +36°C° 0 mm 1 mps 753 mmHg 61%
    14:00 +37°C° 0 mm 2 mps 752 mmHg 60%
    15:00 +37°C° 0 mm 2 mps 752 mmHg 60%
    16:00 +36°C° 0 mm 2 mps 751 mmHg 64%
    17:00 +35°C° 0 mm 2 mps 751 mmHg 68%
    18:00 +34°C° 0 mm 2 mps 751 mmHg 73%
    19:00 +32°C° 0 mm 2 mps 752 mmHg 75%
    20:00 +32°C° 0 mm 2 mps 752 mmHg 77%
    21:00 +31°C° 0 mm 2 mps 753 mmHg 79%
    22:00 +31°C° 0 mm 2 mps 753 mmHg 81%
    23:00 +30°C° 0 mm 2 mps 753 mmHg 82%

    Day after tomorrow, 25 September, Monday

    Time Temperature Precipitation Wind Pressure Humidity
    00:00 +30°C° 0 mm 2 mps 753 mmHg 84%
    01:00 +30°C° 0.9 mm 2 mps 752 mmHg 86%
    02:00 +29°C° 0.9 mm 2 mps 752 mmHg 87%
    03:00 +29°C° 0.9 mm 2 mps 752 mmHg 89%
    04:00 +29°C° 0.1 mm 2 mps 752 mmHg 89%
    05:00 +29°C° 0.1 mm 1 mps 752 mmHg 90%
    06:00 +29°C° 0.1 mm 1 mps 752 mmHg 91%
    07:00 +30°C° 0.8 mm 1 mps 753 mmHg 85%
    08:00 +31°C° 0.8 mm 1 mps 753 mmHg 80%
    09:00 +33°C° 0.8 mm 1 mps 754 mmHg 75%
    10:00 +34°C° 0.3 mm 1 mps 754 mmHg 69%
    11:00 +35°C° 0.3 mm 1 mps 753 mmHg 63%
    12:00 +37°C° 0.3 mm 1 mps 753 mmHg 58%
    13:00 +35°C° 1.1 mm 0 mps 752 mmHg 57%
    14:00 +34°C° 1.1 mm 0 mps 751 mmHg 57%
    15:00 +34°C° 1.1 mm 0 mps 750 mmHg 57%
    16:00 +33°C° 0 mm 0 mps 750 mmHg 61%
    17:00 +34°C° 0 mm 1 mps 750 mmHg 64%
    18:00 +33°C° 0 mm 1 mps 750 mmHg 68%
    19:00 +33°C° 0 mm 1 mps 751 mmHg 72%
    20:00 +32°C° 0 mm 2 mps 752 mmHg 75%
    21:00 +31°C° 0 mm 2 mps 753 mmHg 79%
    22:00 +31°C° 0.1 mm 2 mps 752 mmHg 81%
    23:00 +30°C° 0.1 mm 2 mps 752 mmHg 83%

    26 September, Tuesday

    Time Temperature Precipitation Wind Pressure Humidity
    00:00 +30°C° 0.1 mm 2 mps 752 mmHg 86%
    01:00 +30°C° 0.3 mm 2 mps 752 mmHg 87%
    02:00 +30°C° 0.3 mm 2 mps 752 mmHg 88%
    03:00 +29°C° 0.3 mm 2 mps 751 mmHg 89%
    04:00 +29°C° 0.3 mm 1 mps 752 mmHg 89%
    05:00 +29°C° 0.3 mm 1 mps 752 mmHg 89%
    06:00 +29°C° 0.3 mm 1 mps 752 mmHg 89%
    07:00 +30°C° 0.4 mm 1 mps 753 mmHg 84%
    08:00 +29°C° 0.4 mm 0 mps 753 mmHg 79%
    09:00 +30°C° 0.4 mm 0 mps 754 mmHg 74%
    10:00 +33°C° 0 mm 1 mps 754 mmHg 70%
    11:00 +34°C° 0 mm 1 mps 753 mmHg 66%
    12:00 +35°C° 0 mm 1 mps 753 mmHg 62%
    13:00 +36°C° 0.3 mm 1 mps 752 mmHg 60%
    14:00 +36°C° 0.3 mm 1 mps 751 mmHg 58%
    15:00 +36°C° 0.3 mm 1 mps 751 mmHg 57%
    16:00 +35°C° 0.2 mm 1 mps 751 mmHg 61%
    17:00 +34°C° 0.2 mm 1 mps 751 mmHg 65%
    18:00 +33°C° 0.2 mm 1 mps 751 mmHg 70%
    19:00 +32°C° 0.3 mm 2 mps 752 mmHg 73%
    20:00 +32°C° 0.3 mm 2 mps 752 mmHg 77%
    21:00 +31°C° 0.3 mm 2 mps 753 mmHg 81%
    22:00 +30°C° 0.7 mm 2 mps 753 mmHg 83%
    23:00 +30°C° 0.7 mm 2 mps 753 mmHg 85%

    27 September, Wednesday

    Time Temperature Precipitation Wind Pressure Humidity
    00:00 +29°C° 0.7 mm 2 mps 753 mmHg 87%
    01:00 +29°C° 0.3 mm 2 mps 752 mmHg 87%
    02:00 +29°C° 0.3 mm 1 mps 752 mmHg 88%
    03:00 +29°C° 0.3 mm 1 mps 752 mmHg 88%
    04:00 +29°C° 0.3 mm 1 mps 752 mmHg 88%
    05:00 +29°C° 0.3 mm 1 mps 752 mmHg 88%
    06:00 +29°C° 0.3 mm 1 mps 753 mmHg 88%
    07:00 +30°C° 0.2 mm 1 mps 753 mmHg 85%
    08:00 +29°C° 0.2 mm 0 mps 754 mmHg 82%
    09:00 +29°C° 0.2 mm 0 mps 754 mmHg 78%
    10:00 +33°C° 0 mm 1 mps 754 mmHg 73%
    11:00 +34°C° 0 mm 1 mps 754 mmHg 68%
    12:00 +35°C° 0 mm 1 mps 753 mmHg 63%
    13:00 +35°C° 1.1 mm 1 mps 752 mmHg 63%
    14:00 +35°C° 1.1 mm 1 mps 752 mmHg 62%
    15:00 +35°C° 1.1 mm 1 mps 751 mmHg 62%
    16:00 +34°C° 0.6 mm 1 mps 751 mmHg 67%
    17:00 +33°C° 0.6 mm 1 mps 752 mmHg 72%
    18:00 +32°C° 0.6 mm 2 mps 752 mmHg 78%
    19:00 +31°C° 0 mm 2 mps 752 mmHg 80%
    20:00 +31°C° 0 mm 2 mps 753 mmHg 82%
    21:00 +30°C° 0 mm 2 mps 753 mmHg 84%
    22:00 +30°C° 0 mm 2 mps 753 mmHg 85%
    23:00 +30°C° 0 mm 2 mps 753 mmHg 87%

    28 September, Thursday

    Time Temperature Precipitation Wind Pressure Humidity
    00:00 +30°C° 0 mm 2 mps 753 mmHg 88%
    01:00 +29°C° 0.1 mm 1 mps 752 mmHg 88%
    02:00 +29°C° 0.1 mm 1 mps 752 mmHg 88%
    03:00 +29°C° 0.1 mm 1 mps 752 mmHg 89%
    04:00 +29°C° 1 mm 1 mps 752 mmHg 88%
    05:00 +29°C° 1 mm 1 mps 753 mmHg 88%
    06:00 +29°C° 1 mm 1 mps 753 mmHg 88%
    07:00 +30°C° 1.8 mm 1 mps 753 mmHg 82%
    08:00 +31°C° 1.8 mm 1 mps 754 mmHg 77%
    09:00 +30°C° 1.8 mm 0 mps 754 mmHg 72%
    10:00 +31°C° 0.3 mm 0 mps 754 mmHg 67%
    11:00 +33°C° 0.3 mm 0 mps 753 mmHg 62%
    12:00 +34°C° 0.3 mm 0 mps 753 mmHg 57%
    13:00 +35°C° 2.7 mm 1 mps 752 mmHg 62%
    14:00 +34°C° 2.7 mm 1 mps 752 mmHg 66%
    15:00 +34°C° 2.7 mm 2 mps 751 mmHg 70%
    16:00 +32°C° 2 mm 1 mps 751 mmHg 75%
    17:00 +31°C° 2 mm 1 mps 752 mmHg 79%
    18:00 +30°C° 2 mm 1 mps 752 mmHg 84%
    19:00 +30°C° 0.1 mm 1 mps 752 mmHg 84%
    20:00 +30°C° 0.1 mm 1 mps 753 mmHg 85%
    21:00 +29°C° 0.1 mm 1 mps 753 mmHg 85%
    22:00 +29°C° 0 mm 1 mps 753 mmHg 86%
    23:00 +29°C° 0 mm 1 mps 753 mmHg 87%
    Show more